Snowfall_Accumulation
0.0 0.0 0.0 0.0 0.0 0.0 0.0 0.0 0.0 0.0 0.0 0.0 0.0 0.0 0.0 0.0 0.0 0.0 0.0 0.0 0.0 0.0 0.0 0.0 0.0 0.0 0.0 0.0 0.0 0.0 0.0 0.0 0.0 0.0 0.0 0.0 0.0 0.0 0.0 0.0 0.0 0.0 0.0 0.0
0.0 0.0 0.0 0.0 0.0 0.0 0.0 0.0 0.0 0.0 0.0 0.0 0.0 0.0 0.0 0.0 0.0 0.0 0.0 0.0 0.0 0.0 0.0 0.0 0.0 0.0 0.0 0.0 0.0 0.0 0.0 0.0 0.0 0.0 0.0 0.0 0.0 0.0 0.0 0.0 0.0 0.0 0.0 0.0
0.0 0.0 0.0 0.0 0.0 0.0 0.0 0.0 0.0 0.0 0.0 0.0 0.0 0.0 0.0 0.0 0.0 0.0 0.0 0.0 0.0 0.0 0.0 0.0 0.0 0.0 0.0 0.0 0.0 0.0 0.0 0.0 0.0 0.0 0.0 0.0 0.0 0.0 0.0 0.0 0.0 0.0 0.0 0.0
0.0 0.0 0.0 0.0 0.0 0.0 0.0 0.0 0.0 0.0 0.0 0.0 0.0 0.0 0.0 0.0 0.0 0.0 0.0 0.0 0.0 0.0 0.0 0.0 0.0 0.0 0.0 0.0 0.0 0.0 0.0 0.0 0.0 0.0 0.0 0.0 0.0 0.0 0.0 0.0 0.0 0.0 0.0 0.0
0.0 0.0 0.0 0.0 0.0 0.0 0.1 0.0 0.0 0.0 0.0 0.0 0.0 0.0 0.0 0.0 0.0 0.0 0.0 0.0 0.0 0.0 0.0 0.0 0.0 0.0 0.0 0.0 0.0 0.0 0.0 0.0 0.0 0.0 0.0 0.0 0.0 0.0 0.0 0.0 0.0 0.0 0.0 0.0
0.0 0.0 0.0 0.0 0.0 0.0 0.0 0.0 0.0 0.0 0.0 1.8 0.0 0.0 0.2 0.0 0.0 0.0 0.0 0.0 0.0 0.0 0.0 0.0 0.0 0.0 0.0 0.0 0.0 0.0 0.0 0.0 0.0 0.0 0.0 0.0 0.0 0.0 0.0 0.0 0.0 0.0 0.0 0.0
0.0 0.0 0.0 0.0 0.0 0.0 0.0 0.1 2.0 3.1 7.1 1.9 0.0 0.1 0.2 0.0 0.0 0.0 0.0 0.0 0.0 0.0 0.0 0.0 0.0 0.0 0.0 0.0 0.0 0.0 0.0 0.0 0.0 0.0 0.0 0.0 0.0 0.0 0.0 0.0 0.0 0.0 0.0 0.0
0.6 0.9 0.0 0.0 0.0 0.3 0.0 0.4 1.8 3.7 1.8 0.1 0.0 0.4 0.7 0.1 0.0 0.0 0.0 0.0 0.0 0.0 0.0 0.0 0.0 0.0 0.0 0.0 0.0 0.0 0.0 0.0 0.0 0.0 0.0 0.0 0.0 0.0 0.0 0.0 0.0 0.0 0.0 0.0
1.7 0.3 0.0 0.0 0.0 0.1 0.1 1.6 0.1 4.0 1.4 2.0 0.1 0.1 0.2 0.0 0.1 0.0 0.0 0.0 0.0 0.0 0.0 0.0 0.0 0.0 0.0 0.0 0.0 0.0 0.0 0.0 0.0 0.0 0.0 0.0 0.0 0.0 0.0 0.0 0.0 0.0 0.0 0.0
0.2 2.6 0.0 0.0 0.0 0.0 0.2 0.1 1.4 1.8 11.5 4.8 0.2 0.5 0.5 0.0 0.0 0.0 0.0 0.0 0.0 0.0 0.0 0.0 0.0 0.0 0.0 0.0 0.0 0.0 0.0 0.0 0.0 0.0 0.0 0.0 0.0 0.0 0.0 0.0 0.0 0.0 0.0 0.0
2.8 2.0 0.1 0.1 1.1 0.1 0.3 0.7 1.1 0.8 2.6 3.3 1.7 1.1 0.3 0.1 0.0 0.0 0.0 0.0 0.0 0.0 0.0 0.0 0.0 0.0 0.0 0.0 0.0 0.0 0.0 0.0 0.0 0.0 0.0 0.0 0.0 0.0 0.0 0.0 0.0 0.0 0.0 0.0
0.5 2.1 4.9 0.8 0.0 0.0 0.4 0.4 0.4 4.8 1.6 1.1 2.2 2.2 0.0 0.0 0.0 0.0 0.0 0.0 0.0 0.0 0.0 0.0 0.0 0.0 0.0 0.0 0.0 0.0 0.0 0.0 0.0 0.0 0.0 0.0 0.0 0.0 0.0 0.0 0.1 0.1 0.1 0.1
4.1 6.3 8.6 3.2 2.9 0.5 2.4 0.1 0.2 0.2 0.9 2.7 8.8 0.6 0.0 0.0 0.0 0.0 0.0 0.0 0.0 0.0 0.0 0.0 0.0 0.0 0.0 0.0 0.0 0.0 0.0 0.0 0.0 0.0 0.0 0.0 0.0 0.0 0.0 0.0 0.1 0.1 0.3 0.5
nan 7.0 6.7 4.1 2.5 1.9 5.0 2.5 0.3 2.9 9.1 0.8 0.3 0.0 0.0 0.0 0.0 0.0 0.0 0.0 0.0 0.0 0.0 0.0 0.0 0.0 0.0 0.0 0.0 0.0 0.0 0.0 0.0 0.0 0.0 0.0 0.0 0.0 0.0 0.0 0.0 0.1 0.2 0.5
1.4 19.3 3.7 1.9 0.2 0.7 3.1 4.6 1.8 2.6 0.6 4.6 0.0 0.0 0.1 0.2 0.1 0.0 0.0 0.0 0.0 0.0 0.0 0.0 0.0 0.0 0.0 0.0 0.0 0.0 0.0 0.0 0.0 0.0 0.0 0.0 0.0 0.0 0.0 0.0 0.0 0.0 0.1 0.2
2.8 14.7 5.0 7.5 0.2 0.2 3.7 2.1 2.6 0.9 0.4 0.2 0.1 0.0 0.0 0.2 0.0 0.0 0.0 0.0 0.0 0.0 0.0 0.0 0.0 0.0 0.1 0.1 0.1 0.1 0.1 0.1 0.1 0.0 0.0 0.0 0.0 0.0 0.0 0.0 0.0 0.0 0.0 0.1
3.6 8.3 15.0 22.7 0.1 0.2 18.0 2.8 2.3 0.5 2.5 1.9 1.4 0.3 0.1 0.2 0.1 0.0 0.0 0.0 0.0 0.0 0.0 0.0 0.0 0.1 0.1 0.1 0.1 0.2 0.2 0.2 0.1 0.2 0.1 0.1 0.1 0.1 0.1 0.0 0.0 0.1 0.1 0.1
6.2 8.1 8.7 23.4 7.8 44.3 4.7 0.2 1.3 0.6 0.6 0.6 1.0 0.3 0.3 0.2 0.1 0.1 0.1 0.1 0.0 0.0 0.0 0.1 0.1 0.1 0.1 0.1 0.1 0.1 0.0 0.0 0.0 0.0 0.1 0.1 0.1 0.3 0.1 0.3 0.5 0.4 0.3 1.5
1.1 4.5 32.5 44.3 23.1 1.2 0.1 0.4 2.4 4.6 2.6 0.8 0.4 0.1 0.3 0.4 0.5 0.3 0.1 0.0 0.1 0.1 0.0 0.0 0.1 0.2 0.1 0.0 0.0 0.0 0.1 0.1 0.1 0.2 0.1 0.4 0.2 0.5 0.6 0.6 1.3 2.1 2.7 3.7
1.2 2.3 8.6 41.5 38.4 27.7 1.7 0.2 0.3 0.9 5.6 1.1 0.6 0.4 0.3 0.7 2.1 0.6 0.5 0.2 0.2 0.1 0.1 0.1 0.0 0.0 0.0 0.0 0.0 0.0 0.2 0.4 1.1 0.6 0.4 0.6 0.9 0.3 0.7 0.9 0.9 1.7 4.0 5.6
15.3 25.5 38.3 27.4 32.9 9.8 0.7 0.2 0.5 11.2 4.1 1.1 0.4 0.4 0.5 1.4 1.3 1.1 0.4 0.3 0.2 0.1 0.1 0.1 0.0 0.0 0.0 0.0 0.0 0.3 0.4 1.7 1.0 1.6 1.1 0.8 0.9 0.8 0.5 0.7 1.1 2.3 4.1 4.5
6.3 14.6 31.1 26.0 40.3 39.8 0.2 0.0 0.6 1.9 2.4 1.1 0.6 0.4 0.5 0.4 0.6 0.5 0.4 0.4 0.3 0.2 0.1 0.2 0.0 0.1 0.1 0.4 0.2 0.6 1.0 1.4 2.1 1.7 1.6 1.6 1.6 0.8 0.7 1.2 1.3 3.0 3.7 3.9
6.6 2.8 6.3 3.9 7.9 2.6 0.3 0.2 0.4 1.4 1.3 0.7 0.5 0.2 0.1 0.1 0.1 0.1 0.1 0.2 1.5 1.0 0.1 0.2 0.1 0.6 4.8 4.1 1.6 1.4 1.4 1.7 2.3 3.6 4.4 4.5 2.9 2.2 1.5 2.1 3.7 4.7 3.3 5.3
1.8 1.4 5.0 3.7 5.2 2.3 1.8 1.6 0.9 0.6 0.3 0.1 0.0 0.0 0.0 0.0 0.1 0.1 0.1 0.3 0.2 0.3 0.6 0.3 0.3 0.8 2.0 2.1 1.9 1.6 1.5 3.2 6.5 5.9 4.2 3.6 3.9 2.4 2.7 3.9 4.2 4.4 5.6 5.9
1.0 1.6 2.9 2.6 1.0 0.3 1.3 1.2 0.4 0.4 0.2 0.1 0.0 0.0 0.0 0.0 0.0 0.0 0.0 0.1 0.0 0.1 0.3 0.6 0.2 0.4 0.7 1.3 2.5 2.4 2.4 3.6 4.2 5.1 5.3 4.3 4.5 3.0 2.8 2.4 3.3 2.8 2.3 2.7
0.5 3.2 3.0 2.3 0.9 0.9 0.5 0.5 0.8 0.7 0.3 0.2 0.3 0.1 0.0 0.1 0.1 0.1 0.1 0.0 0.1 0.1 0.1 0.4 0.3 0.6 0.5 0.6 0.6 1.5 2.5 1.8 3.0 1.7 3.0 3.2 3.2 3.0 3.1 3.1 3.1 nan nan nan
Water_Equivalent
0.00 0.00 0.00 0.00 0.00 0.00 0.00 0.00 0.00 0.00 0.00 0.00 0.00 0.00 0.00 0.00 0.00 0.00 0.00 0.00 0.00 0.00 0.00 0.00 0.00 0.00 0.00 0.00 0.00 0.00 0.00 0.00 0.00 0.00 0.00 0.00 0.00 0.00 0.00 0.00 0.00 0.00 0.00 0.00
0.00 0.00 0.00 0.00 0.00 0.00 0.00 0.00 0.00 0.00 0.00 0.00 0.00 0.00 0.00 0.00 0.00 0.00 0.00 0.00 0.00 0.00 0.00 0.00 0.00 0.00 0.00 0.00 0.00 0.00 0.00 0.00 0.00 0.00 0.00 0.00 0.00 0.00 0.00 0.00 0.00 0.00 0.00 0.00
0.00 0.00 0.00 0.00 0.00 0.00 0.00 0.00 0.00 0.00 0.00 0.00 0.00 0.00 0.00 0.00 0.00 0.00 0.00 0.00 0.00 0.00 0.00 0.00 0.00 0.00 0.00 0.00 0.00 0.00 0.00 0.00 0.00 0.00 0.00 0.00 0.00 0.00 0.00 0.00 0.00 0.00 0.00 0.00
0.00 0.00 0.00 0.00 0.00 0.00 0.00 0.00 0.00 0.00 0.00 0.00 0.00 0.00 0.00 0.00 0.00 0.00 0.00 0.00 0.00 0.00 0.00 0.00 0.00 0.00 0.00 0.00 0.00 0.00 0.00 0.00 0.00 0.00 0.00 0.00 0.00 0.00 0.00 0.00 0.00 0.00 0.00 0.00
0.01 0.00 0.00 0.00 0.01 0.00 0.01 0.00 0.00 0.00 0.00 0.00 0.00 0.00 0.00 0.00 0.00 0.00 0.00 0.00 0.00 0.00 0.00 0.00 0.00 0.00 0.00 0.00 0.00 0.00 0.00 0.00 0.00 0.00 0.00 0.00 0.00 0.00 0.00 0.00 0.00 0.00 0.00 0.00
0.00 0.00 0.00 0.01 0.00 0.00 0.00 0.01 0.00 0.00 0.01 0.31 0.00 0.00 0.03 0.00 0.01 0.00 0.00 0.00 0.00 0.00 0.00 0.00 0.00 0.00 0.00 0.00 0.00 0.00 0.00 0.00 0.00 0.00 0.00 0.00 0.00 0.00 0.00 0.00 0.00 0.00 0.00 0.00
0.00 0.00 0.00 0.00 0.00 0.00 0.00 0.02 0.43 0.66 1.24 0.36 0.00 0.02 0.03 0.00 0.00 0.00 0.00 0.00 0.00 0.00 0.00 0.00 0.00 0.00 0.00 0.00 0.00 0.00 0.00 0.00 0.00 0.00 0.00 0.00 0.00 0.00 0.00 0.00 0.00 0.00 0.00 0.00
0.16 0.26 0.00 0.00 0.01 0.05 0.00 0.07 0.28 0.39 0.31 0.02 0.00 0.05 0.13 0.01 0.01 0.00 0.00 0.00 0.00 0.00 0.00 0.00 0.00 0.00 0.00 0.00 0.00 0.00 0.00 0.00 0.00 0.00 0.00 0.00 0.00 0.00 0.00 0.00 0.00 0.00 0.00 0.00
0.33 0.06 0.00 0.00 0.00 0.01 0.02 0.32 0.02 0.43 0.28 0.29 0.02 0.02 0.04 0.01 0.01 0.01 0.01 0.00 0.00 0.00 0.00 0.00 0.00 0.00 0.00 0.00 0.00 0.00 0.00 0.00 0.00 0.00 0.00 0.00 0.00 0.00 0.00 0.00 0.00 0.00 0.00 0.00
0.04 0.36 0.00 0.00 0.00 0.00 0.04 0.01 0.21 0.33 1.53 0.66 0.04 0.07 0.08 0.00 0.00 0.00 0.00 0.00 0.00 0.00 0.00 0.00 0.00 0.00 0.00 0.00 0.00 0.00 0.00 0.00 0.00 0.00 0.00 0.00 0.00 0.00 0.00 0.00 0.00 0.00 0.00 0.00
0.64 0.32 0.03 0.04 0.25 0.01 0.06 0.13 0.17 0.15 0.41 0.38 0.20 0.15 0.05 0.01 0.00 0.00 0.00 0.00 0.00 0.00 0.00 0.00 0.00 0.00 0.00 0.00 0.00 0.00 0.00 0.00 0.00 0.00 0.00 0.00 0.00 0.00 0.00 0.00 0.01 0.00 0.00 0.00
0.11 0.39 0.64 0.18 0.00 0.01 0.08 0.06 0.06 0.66 0.21 0.16 0.25 0.23 0.00 0.01 0.00 0.00 0.00 0.00 0.00 0.00 0.00 0.00 0.00 0.00 0.00 0.00 0.00 0.00 0.00 0.00 0.00 0.00 0.00 0.00 0.00 0.00 0.00 0.01 0.01 0.03 0.03 0.01
0.61 1.10 1.66 0.64 0.47 0.10 0.41 0.01 0.03 0.03 0.13 0.37 1.08 0.08 0.00 0.01 0.00 0.00 0.00 0.00 0.00 0.00 0.00 0.00 0.00 0.00 0.00 0.00 0.00 0.00 0.00 0.00 0.00 0.00 0.00 0.00 0.00 0.00 0.00 0.01 0.02 0.02 0.08 0.12
nan 1.05 0.87 0.62 0.41 0.37 0.70 0.34 0.05 0.36 1.29 0.12 0.06 0.00 0.00 0.00 0.00 0.00 0.00 0.00 0.00 0.00 0.00 0.00 0.00 0.00 0.00 0.00 0.00 0.00 0.00 0.00 0.00 0.00 0.00 0.00 0.00 0.00 0.00 0.00 0.00 0.02 0.04 0.10
0.27 3.50 0.55 0.28 0.04 0.12 0.44 0.64 0.28 0.31 0.07 0.49 0.00 0.00 0.02 0.03 0.02 0.00 0.00 0.00 0.00 0.00 0.00 0.00 0.00 0.00 0.00 0.01 0.00 0.00 0.00 0.00 0.00 0.00 0.00 0.00 0.00 0.00 0.00 0.00 0.00 0.00 0.01 0.03
0.40 2.62 0.68 1.24 0.04 0.05 0.56 0.30 0.37 0.11 0.05 0.02 0.02 0.01 0.01 0.03 0.00 0.01 0.00 0.00 0.00 0.00 0.00 0.00 0.00 0.01 0.01 0.01 0.01 0.02 0.02 0.02 0.01 0.00 0.00 0.00 0.00 0.00 0.00 0.00 0.00 0.00 0.01 0.02
0.48 1.45 2.92 4.17 0.01 0.03 2.93 0.32 0.28 0.07 0.26 0.19 0.16 0.03 0.01 0.03 0.01 0.01 0.00 0.00 0.00 0.00 0.00 0.00 0.01 0.01 0.01 0.02 0.02 0.03 0.02 0.02 0.02 0.02 0.01 0.01 0.01 0.02 0.02 0.00 0.00 0.01 0.02 0.02
0.77 1.47 1.72 4.41 1.84 7.44 0.65 0.03 0.20 0.07 0.07 0.07 0.13 0.04 0.05 0.04 0.02 0.02 0.02 0.01 0.01 0.01 0.01 0.01 0.01 0.01 0.01 0.01 0.02 0.01 0.01 0.00 0.00 0.00 0.02 0.01 0.03 0.08 0.03 0.08 0.09 0.08 0.07 0.32
0.16 0.60 5.30 8.06 3.87 0.20 0.02 0.04 0.26 0.49 0.22 0.09 0.05 0.01 0.05 0.07 0.09 0.04 0.02 0.01 0.02 0.02 0.00 0.01 0.02 0.03 0.02 0.01 0.00 0.00 0.02 0.02 0.02 0.04 0.02 0.10 0.04 0.13 0.12 0.12 0.26 0.49 0.59 0.95
0.12 0.27 1.20 6.96 6.35 4.12 0.17 0.03 0.05 0.13 0.50 0.15 0.07 0.06 0.04 0.11 0.29 0.11 0.07 0.04 0.03 0.02 0.02 0.01 0.00 0.00 0.00 0.00 0.00 0.01 0.04 0.08 0.23 0.14 0.09 0.12 0.24 0.08 0.19 0.25 0.24 0.38 0.93 1.23
2.46 4.45 6.50 4.44 5.54 1.65 0.09 0.03 0.07 1.21 0.43 0.13 0.06 0.06 0.06 0.19 0.20 0.14 0.06 0.05 0.03 0.02 0.02 0.01 0.01 0.00 0.00 0.00 0.01 0.04 0.07 0.31 0.17 0.32 0.26 0.16 0.19 0.17 0.12 0.16 0.27 0.50 0.87 0.94
0.88 2.19 5.25 4.31 6.18 5.86 0.03 0.00 0.05 0.24 0.31 0.16 0.09 0.06 0.06 0.05 0.07 0.06 0.05 0.05 0.03 0.03 0.02 0.03 0.01 0.01 0.02 0.07 0.04 0.10 0.15 0.22 0.31 0.26 0.23 0.23 0.27 0.14 0.13 0.26 0.27 0.65 0.77 0.77
0.94 0.33 0.88 0.41 0.84 0.34 0.04 0.03 0.06 0.18 0.16 0.09 0.06 0.03 0.02 0.02 0.02 0.01 0.01 0.03 0.30 0.21 0.02 0.04 0.02 0.10 0.75 0.73 0.27 0.22 0.20 0.24 0.29 0.51 0.68 0.69 0.51 0.40 0.26 0.44 0.70 1.01 0.65 1.11
0.25 0.19 0.83 0.56 0.60 0.25 0.22 0.20 0.11 0.08 0.04 0.01 0.00 0.01 0.00 0.00 0.01 0.02 0.02 0.05 0.04 0.05 0.10 0.06 0.06 0.13 0.28 0.31 0.27 0.26 0.22 0.43 1.10 0.95 0.57 0.49 0.57 0.46 0.47 0.80 0.93 1.01 1.12 1.14
0.14 0.23 0.38 0.34 0.12 0.04 0.16 0.14 0.05 0.04 0.02 0.01 0.00 0.01 0.00 0.00 0.00 0.00 0.01 0.01 0.00 0.01 0.05 0.12 0.04 0.07 0.11 0.20 0.34 0.36 0.34 0.50 0.58 0.69 0.65 0.58 0.70 0.50 0.42 0.38 0.62 0.51 0.42 0.61
0.08 0.31 0.33 0.28 0.10 0.10 0.06 0.07 0.09 0.07 0.03 0.02 0.02 0.01 0.01 0.01 0.00 0.01 0.01 0.00 0.01 0.01 0.02 0.06 0.04 0.08 0.08 0.09 0.10 0.22 0.41 0.30 0.45 0.22 0.45 0.50 0.50 0.47 0.47 0.46 0.47 nan nan nan
SL_Ratio
nan nan nan nan nan nan nan nan nan nan nan nan nan nan nan nan nan nan nan nan nan nan nan nan nan nan nan nan nan nan nan nan nan nan nan nan nan nan nan nan nan nan nan nan
nan nan nan nan nan nan nan nan nan nan nan nan nan nan nan nan nan nan nan nan nan nan nan nan nan nan nan nan nan nan nan nan nan nan nan nan nan nan nan nan nan nan nan nan
nan nan nan nan nan nan nan nan nan nan nan nan nan nan nan nan nan nan nan nan nan nan nan nan nan nan nan nan nan nan nan nan nan nan nan nan nan nan nan nan nan nan nan nan
nan nan nan nan nan nan nan nan nan nan nan 5.0 nan 5.0 nan nan nan nan nan nan nan nan nan nan nan nan nan nan nan nan nan nan nan nan nan nan nan nan nan nan nan nan nan nan
4.6 nan nan nan 5.5 nan 5.3 nan nan nan nan nan nan nan nan nan nan nan nan nan nan nan nan nan nan nan nan nan nan nan nan nan nan nan nan nan nan nan nan nan nan nan nan nan
5.0 nan nan 4.6 5.0 nan nan 4.4 2.5 nan 5.0 6.0 nan nan 5.8 5.8 5.6 nan nan nan nan nan nan nan nan nan nan nan nan nan nan nan nan nan nan nan nan nan nan nan nan nan nan nan
nan nan nan 5.0 5.0 nan nan 5.0 4.6 4.8 5.8 5.4 nan 5.9 5.9 5.0 5.0 4.2 nan nan nan nan nan nan nan nan nan nan nan nan nan nan nan nan nan nan nan nan nan nan nan nan nan nan
3.8 3.7 nan nan 5.0 5.6 5.0 6.4 6.2 9.3 5.6 6.0 nan 7.1 5.4 4.8 4.6 5.0 nan nan nan nan nan nan nan nan nan nan nan nan nan nan nan nan nan nan nan nan nan nan nan nan nan nan
5.1 4.2 nan nan nan 4.8 5.8 5.1 5.2 9.5 4.8 7.0 5.6 5.3 4.8 4.4 4.7 5.0 5.0 5.0 nan nan nan nan nan nan nan nan nan nan nan nan nan nan nan nan nan nan nan nan nan nan nan nan
5.3 7.1 3.8 nan nan 4.2 5.5 5.2 6.9 5.3 7.5 7.3 6.5 7.8 6.2 6.7 nan nan nan nan 5.0 nan nan nan nan nan nan nan nan nan nan nan nan nan nan nan nan nan nan nan nan nan nan nan
4.3 6.1 4.0 3.9 4.6 4.8 5.8 5.9 6.4 5.7 6.5 8.8 8.5 7.6 5.3 5.0 nan nan nan nan nan nan nan nan nan nan nan nan nan nan nan nan nan nan nan nan nan nan 5.0 3.3 3.5 4.3 nan 5.0
5.1 5.3 7.6 4.6 nan 4.4 5.7 6.7 6.6 7.2 8.0 6.8 8.7 9.6 5.0 4.4 nan nan nan 5.0 nan nan nan nan nan nan nan nan nan nan nan nan nan nan nan nan nan nan 3.8 4.4 3.9 3.5 4.0 4.3
6.6 5.8 5.2 5.1 6.2 4.9 5.8 5.5 5.7 5.8 6.6 7.2 8.1 8.1 nan 3.9 3.8 nan nan nan nan nan nan nan nan nan nan nan nan nan nan nan nan nan nan nan nan nan nan 5.0 4.5 3.9 4.2 3.9
nan 6.7 7.7 6.7 6.2 5.2 7.2 7.3 5.4 7.9 7.1 6.5 5.0 6.7 6.3 5.0 5.0 nan nan nan nan nan 6.3 nan nan nan nan 5.0 5.0 nan nan nan nan nan nan nan nan nan nan nan nan 5.0 4.7 4.9
5.3 5.5 6.8 6.8 5.4 5.7 7.0 7.3 6.4 8.3 7.5 9.5 8.3 6.7 6.4 5.4 5.8 nan nan nan 5.0 nan nan 5.0 10.0 5.0 6.3 5.4 5.8 nan nan nan nan nan nan nan nan nan nan nan nan 5.0 5.0 5.3
6.9 5.6 7.3 6.1 4.7 5.3 6.6 7.0 7.2 8.0 8.4 7.5 7.6 7.5 5.5 5.4 5.0 5.4 nan nan nan 5.0 nan 6.7 5.7 5.5 5.7 5.5 5.8 6.0 6.3 6.4 6.0 6.3 6.7 6.0 6.7 nan nan nan nan nan 5.0 5.2
7.6 5.7 5.1 5.4 5.3 5.3 6.1 8.8 8.3 7.9 9.6 9.7 8.5 8.5 5.2 5.8 5.7 5.5 nan nan nan nan 6.0 5.8 6.1 5.9 5.9 6.0 5.9 6.5 6.7 6.6 6.9 6.7 6.3 6.5 6.4 6.5 5.5 6.0 5.0 4.3 5.0 5.0
8.0 5.5 5.1 5.3 4.2 6.0 7.3 5.6 6.8 8.4 8.4 8.6 7.8 6.9 6.3 6.1 5.7 5.7 5.5 5.7 5.5 5.5 6.3 5.8 6.0 5.8 6.3 6.2 6.2 5.9 6.0 6.4 5.0 5.0 4.3 4.3 4.5 4.4 4.4 4.2 5.1 4.7 4.4 4.7
6.8 7.5 6.1 5.5 6.0 6.1 7.3 8.6 9.3 9.3 11.7 8.7 8.4 6.7 6.2 6.2 6.2 6.5 5.3 5.4 5.8 5.8 5.7 5.8 5.9 6.0 6.3 6.9 7.0 6.0 5.5 4.6 5.2 5.1 4.8 4.2 4.6 4.3 4.7 5.4 5.1 4.2 4.6 3.9
9.7 8.3 7.2 6.0 6.0 6.7 9.9 6.7 5.8 6.8 11.1 7.3 8.0 7.7 6.8 6.4 7.2 5.9 7.0 6.3 6.0 6.0 6.1 6.3 7.5 6.4 6.3 7.5 5.0 5.0 4.7 5.5 4.9 4.7 4.7 5.0 3.7 4.0 3.9 3.5 3.8 4.5 4.3 4.5
6.2 5.7 5.9 6.2 5.9 5.9 8.1 7.2 6.8 9.2 9.5 7.8 6.3 6.7 7.3 7.1 6.7 7.7 6.9 7.0 6.7 6.9 6.3 6.7 6.3 5.0 nan nan 5.5 6.5 5.8 5.5 5.5 5.1 4.4 4.8 4.6 4.5 4.3 4.5 4.2 4.5 4.7 4.8
7.1 6.7 5.9 6.0 6.5 6.8 6.9 5.0 12.8 7.8 7.6 7.2 6.5 6.8 7.8 7.3 8.1 8.2 7.6 7.9 8.0 8.6 5.1 4.7 5.5 8.0 6.0 5.6 5.4 6.4 6.7 6.5 6.7 6.7 6.7 6.7 6.0 5.5 5.2 4.7 5.0 4.5 4.8 5.0
7.0 8.4 7.2 9.7 9.4 7.7 7.4 6.0 6.3 7.8 7.8 7.7 7.5 7.4 7.1 7.5 7.6 6.7 7.8 5.7 5.1 5.1 5.1 4.9 5.3 5.9 6.3 5.5 5.8 6.5 7.1 7.0 8.0 7.1 6.5 6.5 5.7 5.5 5.6 4.7 5.4 4.7 5.1 4.8
7.1 7.4 6.0 6.6 8.7 9.2 8.4 8.2 8.3 8.0 8.2 7.4 7.5 7.8 6.7 10.0 6.2 6.2 7.6 6.0 6.0 5.7 5.5 5.4 5.5 6.3 6.9 6.7 7.1 6.2 6.6 7.5 5.9 6.2 7.3 7.2 6.8 5.3 5.7 4.9 4.5 4.3 5.0 5.2
6.7 7.0 7.7 7.8 8.8 7.4 8.1 8.2 8.2 8.8 8.7 8.9 5.0 7.8 7.9 7.9 10.0 15.0 7.8 7.3 8.0 5.9 5.5 5.4 5.5 6.1 6.4 6.4 7.2 6.7 7.0 7.3 7.2 7.5 8.2 7.4 6.3 6.1 6.6 6.3 5.3 5.6 5.6 4.5
6.0 10.4 9.0 7.9 9.3 9.0 8.1 7.8 8.7 9.9 10.0 10.0 12.1 8.8 6.8 8.7 12.1 5.0 5.6 5.7 5.0 5.0 5.8 6.6 6.8 7.2 6.2 6.5 6.6 6.7 6.2 5.8 6.8 7.8 6.6 6.5 6.4 6.4 6.7 6.8 6.6 nan nan nan